Weather in Mahabad

Iran     36°45′48″N   45°43′28″E
temp.,
°C
wind,
m/s
gust,
m/s
humid.,
%
clouds,
%
prec.,
mm/h
press.,
hPa
HPBL,
m
24 september, fri
fri2400:30+16s48330 0.0 1008139
03:30+18ssw715300 0.0 1006566
06:30+16ssw815370 0.0 1007631
09:30+22sw1116290 0.0 10081535
12:30+24sw1317240 0.0 10072061
15:30+24sw1216230 0.0 10072459
18:30+20sw1015310 0.0 10081021
21:30+18sw814460 0.0 1010701
25 september, sat
sat2500:30+16ssw713530 0.0 1011604
03:30+15ssw813570 0.0 1012706
06:30+13ssw611600 0.0 1013433
09:30+18sw34392 0.0 10141637
12:30+23sw66250 0.0 10112160
15:30+22ssw109250 0.0 10101765
18:30+17ssw69370 0.0 1012296
21:30+14ssw45480 0.0 101486
26 september, sun
sun2600:30+12ssw44480 0.0 101448
03:30+11ssw33480 0.0 101622
06:30+10ssw11500 0.0 101711
09:30+17n45380 0.0 1017975
12:30+20n54330 0.0 10151306
15:30+21n43250 0.0 10141140
18:30+16nne22320 0.0 101412
21:30+13n11380 0.0 101511
27 september, mon
mon2700:30+12n11420 0.0 101510
03:30+11nnw11460 0.0 101511
06:30+10nnw22671 0.0 101511
09:30+17n22400 0.0 1014652
12:30+23n32250 0.0 10111188
15:30+26nne23170 0.0 10071487
18:30+17n22400 0.0 100915
21:30+14ssw11430 0.0 100911
28 september, tue
tue2800:30+13ssw11350 0.0 100911
03:30+12ssw11340 0.0 100911
06:30+11sw11350 0.0 101011
09:30+20wnw12230 0.0 1010720
12:30+26sw46100 0.0 10082503
15:30+25wnw24140 0.0 10072669
18:30+18ssw34240 0.0 101054
21:30+16ssw43280 0.0 101228